Regional Weather Roundup
Issued by NWS

Home | Current Version | Previous Version | Text Only | Print | Product List | Glossary On
Versions: 1 2 3 4 5 6 7 8 9 10 11 12 13 14 15 16 17 18 19 20 21 22 23 24 25 26 27 28 29 30 31 32 33 34 35 36 37 38 39 40 41 42 43 44 45 46 47 48 49 50
000
ASUS43 KMPX 111810
RWRMN
WEATHER ROUNDUP FOR MINNESOTA
NATIONAL WEATHER SERVICE TWIN CITIES/CHANHASSEN MN
1200 PM CST THU FEB 11 2016


NOTE: "FAIR" INDICATES FEW OR NO CLOUDS BELOW 12,000 FEET WITH NO
SIGNIFICANT WEATHER AND/OR OBSTRUCTIONS TO VISIBILITY. N/A MEANS
CURRENT SKY AND/OR WEATHER CONDITIONS ARE NOT AVAILABLE.

MNZ060>063-068>070-111900-
   Twin Cities Metro

CITY           SKY/WX    TMP DP  RH WIND       PRES   REMARKS
TWIN CITIES    CLOUDY    13  -4  46 S5        30.31F WCI   5
6HR MIN TEMP:   3; 6HR MAX TEMP:  13;

ST PAUL        CLOUDY    14  -2  49 VRB5      30.32F WCI   6
CRYSTAL        CLOUDY    14  -3  47 W5        30.29F WCI   6
BLAINE         CLOUDY    16   0  48 NW5       30.28F WCI   9
LAKEVILLE      CLOUDY    12   0  57 S3        30.30F
EDEN PRAIRIE   CLOUDY    13  -2  51 S8        30.29F WCI   2
6HR MIN TEMP:  -2; 6HR MAX TEMP:  13;

SOUTH ST PAUL  CLOUDY    15  -4  42 W5        30.31F WCI   8
LAKE ELMO      PTSUNNY   14   0  52 S3        30.31F
$$
MNZ001>005-007-008-013>017-022>024-027-028-111900-
   Northwest Minnesota

CITY           SKY/WX    TMP DP  RH WIND       PRES   REMARKS
BEMIDJI        CLOUDY     6  -4  63 S3        30.19F
HALLOCK        FLURRIES  10   3  72 SW5       30.24S WCI   2
ROSEAU         CLOUDY     7   0  72 SW7       30.21S WCI  -5
WARROAD        SUNNY      9  -2  61 SW10      30.20S WCI  -6
THIEF RVR FALL CLOUDY     9  -9  43 SW6       30.23F WCI  -1
CROOKSTON      CLOUDY     9   3  78 SW6       30.26S WCI  -1
FOSSTON        CLOUDY     7   0  72 SW5       30.21F WCI  -2
DETROIT LAKES  CLOUDY    10   3  72 CALM      30.21S
MOORHEAD       CLOUDY    10   0  61 CALM      30.25F
PARK RAPIDS    CLOUDY     7  -3  64 CALM      30.19F
MAHNOMEN       CLOUDY     8   1  73 SW3       30.21F
$$
MNZ006-009>011-018-025>026-111900-
   North Central Minnesota

CITY           SKY/WX    TMP DP  RH WIND       PRES   REMARKS
BAUDETTE       CLOUDY     8  -7  50 W7        30.17F WCI  -3
FLAG ISLAND    SUNNY      1  -6  71 SE3       30.18F
INTL FALLS     CLOUDY     7  -7  52 W6        30.18F WCI  -3
6HR MIN TEMP: -10; 6HR MAX TEMP:   7;

WASKISH        CLOUDY     7  -2  66 SW8       30.20S WCI  -6
LONGVILLE      CLOUDY     9  -8  47 SW3       30.21F
GRAND RAPIDS   CLOUDY     7  -8  51 CALM      30.20F
CRANE LAKE     CLOUDY     7  -6  56 NW5       30.21F WCI  -2
ORR            PTSUNNY    7  -8  51 CALM      30.14F
COOK           PTSUNNY    7  -6  56 W8        30.18F WCI  -6
WALKER         CLOUDY     9  -5  53 SW7       30.19F WCI  -2
$$
MNZ012-019>021-037-111900-
   Northeast Minnesota

CITY           SKY/WX    TMP DP  RH WIND       PRES   REMARKS
DULUTH         PTSUNNY    7  -7  52 W8        30.19F WCI  -6
6HR MIN TEMP: -11; 6HR MAX TEMP:   7;

ELY            CLOUDY     3  -6  66 CALM      30.15F
HIBBING        CLOUDY     5  -7  57 NW5       30.19F WCI  -4
EVELETH        SUNNY      5  -6  61 W9        30.19F WCI  -9
DULUTH HARBOR  CLOUDY     7  -6  56 SW8       30.28F WCI  -6
TWO HARBORS    MOSUNNY   12  -2  52 W6        30.18F WCI   3
SILVER BAY     PTSUNNY   14  -6  41 W7        30.17F WCI   4
GRAND MARAIS     N/A     13   1  59 VRB6      30.21F WCI   4
G MARAIS ARPRT CLOUDY     7  -8  51 W7        30.09F WCI  -5
$$
MNZ029>031-032-039>041-046>048-054>057-064-111900-
   West Central Minnesota

CITY           SKY/WX    TMP DP  RH WIND       PRES   REMARKS
FERGUS FALLS   CLOUDY    12   5  73 S6        30.27S WCI   3
WHEATON        CLOUDY    14   9  79 SE6       30.25F WCI   5
MORRIS         CLOUDY    12   7  79 S10       30.23S WCI  -1
ALEXANDRIA     CLOUDY    12   3  67 SW7       30.21F WCI   1
ELBOW LAKE     CLOUDY    12   4  70 S7        30.24S HAZE    WCI   2
WADENA         CLOUDY    10   1  67 SW3       30.20F
GLENWOOD       CLOUDY    12   5  73 SW9       30.22F WCI   0
APPLETON       CLOUDY    12   9  85 SE6       30.25S WCI   3
BENSON         FLURRIES  12   7  79 SW8       30.24F WCI   1
ORTONVILLE     CLOUDY    12   7  79 SE6       30.23S WCI   3
MADISON        CLOUDY    16   7  67 SE9       30.24F WCI   4
WILLMAR        PTSUNNY   16   7  67 S6        30.26F WCI   7
$$
MNZ033>034-036-042>043-049>051-058-059-111900-
   Central Minnesota

CITY           SKY/WX    TMP DP  RH WIND       PRES   REMARKS
ST CLOUD       CLOUDY    10  -2  58 S8        30.27F WCI  -2
6HR MIN TEMP:  -5; 6HR MAX TEMP:  11;

SAUK CENTRE    CLOUDY    12   3  67 S6        30.24S WCI   2
PAYNESVILLE    CLOUDY    13   2  62 S6        30.25F WCI   4
AITKIN         CLOUDY    10  -9  40 S3        30.21F
PINE RIVER       N/A      7  -2  66 CALM      30.24F
BRAINERD       CLOUDY     8  -4  58 SW6       30.23F WCI  -2
STAPLES        CLOUDY     9  -2  61 S5        30.21F WCI   0
LONG PRAIRIE   CLOUDY    10   1  67 CALM      30.23F
LITTLE FALLS   CLOUDY    10  -2  56 S3        30.25F
LITCHFIELD     CLOUDY    14   3  62 S3        30.26F
BUFFALO        CLOUDY    12  -2  53 S5        30.30F WCI   4
MAPLE LAKE     CLOUDY    13   2  61 S3        30.29F
$$
MNZ037-044-045-052-053-111900-
   East Central Minnesota

CITY           SKY/WX    TMP DP  RH WIND       PRES   REMARKS
PRINCETON      CLOUDY    12  -2  52 CALM      30.28F
MORA           PTSUNNY   12  -4  48 SW5       30.28F WCI   4
CAMBRIDGE      CLOUDY    10  -2  56 CALM      30.27F
RUSH CITY      PTSUNNY   11  -5  49 W3        30.28F
MOOSE LAKE     CLOUDY    10  -6  48 SW5       30.23F WCI   2
HINCKLEY       FAIR      10  -4  52 SW5       30.27F WCI   2
CLOQUET        CLOUDY     7  -9  47 SW5       30.21F WCI  -2
MCGREGOR       CLOUDY    10  -4  52 SW5       30.23F WCI   2
$$
MNZ071>073-080-081-089-090-097-098-111900-
   Southwest Minnesota

CITY           SKY/WX    TMP DP  RH WIND       PRES   REMARKS
MONTEVIDEO     CLOUDY    14   5  67 SW7       30.27S WCI   4
GRANITE FALLS  CLOUDY    14   8  75 SE7       30.27F WCI   4
CANBY          CLOUDY    19  13  74 S7        30.23F WCI  10
MARSHALL       FLURRIES  17   8  67 S10       30.24F WCI   5
REDWOOD FALLS  CLOUDY    13   2  61 S12       30.27F WCI  -1
OLIVIA         CLOUDY    16   5  62 S8        30.26F WCI   5
PIPESTONE      FLURRIES  16   3  57 S14       30.19S WCI   1
WINDOM         CLOUDY    12   1  62 S8        30.24F WCI   1
WORTHINGTON    CLOUDY    12   1  62 S15       30.23F WCI  -4
JACKSON        CLOUDY    14   3  62 S13       30.25F WCI   0
TRACY          CLOUDY    16   7  69 S10G17    30.23F WCI   3
SLAYTON        CLOUDY    14   8  76 S10       30.21F WCI   2
$$
MNZ065>067-074>077-082>085-091>093-111900-
   South Central Minnesota

CITY           SKY/WX    TMP DP  RH WIND       PRES   REMARKS
MANKATO        SUNNY     12   1  62 SW6       30.29F WCI   3
NEW ULM        CLOUDY    12   0  57 S9        30.28F WCI   0
ST JAMES       CLOUDY    12   5  73 S12       30.30F WCI  -2
FAIRMONT       CLOUDY    10   1  67 S13       30.28F WCI  -5
GLENCOE        CLOUDY    15   5  65 S6        30.28F WCI   6
FARIBAULT        N/A     12  -2  52 S6        30.30F WCI   3
OWATONNA       SUNNY     12   0  57 S7        30.29F WCI   2
WASECA         SUNNY     14   3  62 S7        30.31F WCI   4
ALBERT LEA     SUNNY     12   0  57 S5        30.29F WCI   4
$$
MNZ078>079-086>088-094>096-111900-
   Southeast Minnesota

CITY           SKY/WX    TMP DP  RH WIND       PRES   REMARKS
ROCHESTER      SUNNY      9  -2  61 SW5       30.29S WCI   1
6HR MIN TEMP:  -2; 6HR MAX TEMP:   9;

RED WING       SUNNY     16  -6  38 W6        30.32F WCI   7
STANTON        PTSUNNY   14  -1  52 SW5       30.30F WCI   6
DODGE CENTER   SUNNY     14  -2  48 SW7       30.28F WCI   4
WINONA         SUNNY     16   0  48 SE3       30.35F
AUSTIN         SUNNY     10  -2  56 S6        30.30F WCI   1
PRESTON        SUNNY     10  -6  46 CALM      30.30S
$$
ABBREVIATIONS USED IN REMARKS
   TC - TEMPERATURES IN CELSIUS
  WCI - WIND CHILL INDEX
   HX - HEAT INDEX
  VSB - VISIBILITY
$$



USA.gov is the U.S. government's official web portal to all federal, state and local government web resources and services.